Temperature
7 7 6 6 6 5 5 5 5 5 5 4 4 4 4 4 3 3 3 3 3 3 2 2 2 2 2 2 2 2 2 2 2 2 2 3 3 3 3 3 3 4 4
6 6 6 6 5 5 5 5 5 4 4 4 4 4 3 3 3 3 3 3 2 2 2 2 2 2 2 2 2 2 2 1 1 2 2 2 2 2 2 3 3 3 4
6 5 5 5 5 4 4 4 4 4 4 4 3 3 3 3 3 3 2 2 2 2 2 2 2 2 2 2 2 2 1 1 1 1 2 2 2 2 2 2 3 3 3
5 5 4 4 4 4 4 4 4 3 3 3 3 3 3 2 2 2 2 2 2 2 2 2 2 2 2 2 1 1 1 1 1 1 1 2 2 2 2 2 2 3 3
4 4 4 4 4 4 3 3 3 3 3 2 2 2 2 2 2 2 1 1 2 2 2 2 2 2 2 1 1 1 1 1 1 1 1 1 1 1 2 2 2 2 2
4 4 3 3 3 3 3 3 3 2 2 2 2 2 2 2 2 2 1 1 1 1 2 2 2 2 2 2 1 1 1 1 1 1 1 1 1 1 1 1 1 2 2
3 3 3 3 3 2 2 2 2 2 2 1 1 1 1 2 2 1 1 1 1 1 1 1 1 1 1 1 1 1 1 1 1 1 1 1 1 1 1 1 1 2 1
2 2 2 2 2 2 2 1 1 1 1 1 1 1 1 1 1 1 1 1 1 1 1 1 1 1 1 1 1 1 1 1 1 1 1 1 1 1 1 1 1 1 1
1 1 1 1 1 1 1 1 0 0 0 0 0 0 0 1 1 1 0 0 0 1 1 1 1 1 1 1 1 1 1 1 1 1 1 1 1 1 1 1 1 1 1
1 1 1 0 0 0 0 0 0 -0 -0 -0 -0 -0 -0 0 0 0 0 -0 -0 0 0 0 0 0 1 1 0 0 0 0 1 1 1 1 1 1 1 1 1 1 1
0 0 0 0 -0 -0 -0 -0 -0 -1 -0 -0 -1 -1 -1 -0 -0 -0 -0 -0 -1 -1 -0 -0 0 0 0 0 0 0 0 0 0 0 1 1 1 1 1 1 1 1 1
-0 -0 -0 -0 -1 -1 -1 -1 -1 -1 -1 -1 -1 -1 -1 -1 -1 -1 -1 -1 -1 -1 -1 -1 -0 -0 -0 -0 -0 0 0 0 0 0 0 0 1 1 1 1 1 1 1
-1 -1 -1 -1 -1 -1 -1 -1 -1 -2 -2 -2 -2 -2 -1 -1 -1 -1 -1 -1 -1 -1 -1 -1 -1 -1 -1 -1 -0 -0 -0 -0 -0 0 0 0 0 0 0 1 1 1 1
-1 -1 -1 -2 -2 -1 -2 -2 -2 -2 -2 -2 -2 -2 -2 -2 -2 -2 -2 -2 -2 -2 -2 -1 -1 -1 -1 -1 -1 -0 -0 -0 -0 -0 -0 0 0 0 0 0 0 1 0
-2 -2 -2 -2 -2 -2 -2 -3 -3 -3 -3 -3 -3 -3 -3 -3 -2 -2 -2 -2 -2 -2 -2 -2 -2 -2 -1 -1 -1 -1 -1 -1 -1 -0 -0 -0 -0 0 0 0 0 0 0
-3 -3 -3 -3 -3 -3 -3 -3 -3 -3 -3 -3 -3 -3 -3 -3 -3 -3 -2 -2 -2 -2 -2 -2 -2 -2 -2 -2 -1 -1 -1 -1 -1 -1 -0 -0 -0 -0 -0 -0 -0 -0 -0
-3 -3 -3 -3 -3 -3 -4 -4 -4 -3 -3 -3 -3 -3 -3 -3 -3 -3 -3 -3 -2 -2 -2 -2 -2 -2 -2 -2 -2 -2 -1 -1 -1 -1 -1 -1 -0 -0 -0 -0 -0 -0 -1
-4 -4 -4 -4 -4 -4 -4 -4 -4 -4 -4 -4 -3 -3 -3 -3 -3 -3 -3 -3 -3 -2 -3 -3 -3 -2 -2 -2 -2 -2 -2 -1 -1 -1 -1 -1 -0 -0 -0 -1 -1 -1 -1
-4 -4 -4 -4 -4 -5 -5 -5 -5 -5 -4 -4 -4 -4 -4 -4 -3 -3 -3 -3 -3 -3 -3 -3 -3 -3 -2 -2 -2 -2 -2 -2 -1 -1 -1 -1 -1 -1 -1 -1 -1 -1 -1
-5 -5 -5 -5 -5 -5 -5 -5 -5 -5 -5 -5 -5 -5 -4 -4 -4 -4 -4 -4 -3 -3 -3 -3 -3 -3 -3 -3 -2 -2 -2 -2 -2 -1 -1 -1 -1 -1 -1 -1 -1 -1 -1
-5 -5 -5 -5 -6 -6 -6 -6 -6 -6 -6 -6 -5 -5 -5 -5 -5 -5 -4 -4 -4 -4 -4 -3 -3 -3 -3 -3 -2 -2 -2 -2 -2 -2 -1 -1 -1 -1 -1 -1 -1 -1 -1
-6 -6 -6 -6 -6 -6 -6 -6 -6 -6 -6 -6 -6 -5 -5 -5 -5 -5 -5 -4 -4 -4 -4 -4 -3 -3 -3 -3 -3 -3 -2 -2 -2 -2 -2 -1 -1 -1 -1 -1 -2 -2 -2
-7 -7 -7 -7 -7 -7 -7 -7 -7 -7 -7 -6 -6 -6 -6 -6 -6 -5 -5 -5 -5 -4 -4 -4 -3 -3 -3 -3 -3 -3 -2 -2 -2 -2 -2 -2 -1 -1 -1 -2 -2 -2 -2
-8 -7 -7 -7 -7 -7 -7 -7 -7 -7 -7 -7 -6 -6 -6 -6 -6 -6 -5 -5 -5 -4 -4 -4 -4 -3 -3 -3 -3 -2 -2 -2 -2 -2 -2 -2 -2 -2 -2 -2 -2 -2 -2
-8 -8 -8 -8 -8 -8 -7 -7 -7 -7 -7 -7 -7 -7 -7 -6 -6 -6 -6 -5 -5 -4 -4 -4 -3 -3 -3 -3 -2 -2 -2 -2 -2 -2 -2 -2 -2 -2 -2 -2 -2 -2 -2
-8 -8 -8 -8 -8 -8 -8 -8 -8 -8 -7 -7 -7 -7 -7 -6 -6 -6 -6 -5 -5 -4 -4 -4 -4 -3 -3 -3 -3 -2 -2 -2 -2 -2 -2 -2 -1 -1 -2 -2 -2 -2 -2
Wind_Speed
3 4 4 5 5 6 6 7 8 8 9 9 10 11 11 11 11 12 12 13 13 13 13 13 14 13 11 11 10 10 11 11 13 13 12 12 14 13 11 11 12 12 11
3 4 4 5 5 6 7 7 8 9 9 10 10 11 11 11 12 12 13 13 13 14 14 14 15 11 13 12 10 11 11 11 12 14 13 11 13 12 11 11 10 9 9
3 4 4 5 5 7 7 8 8 9 9 10 10 11 11 12 12 13 13 14 14 14 14 14 15 13 14 11 11 11 10 10 10 11 12 11 10 10 10 10 9 8 8
3 4 5 5 6 7 7 8 8 9 10 10 10 11 11 12 12 13 13 14 14 14 14 14 14 14 14 12 11 11 10 10 10 10 10 10 9 9 7 7 7 6 6
3 4 5 6 6 7 7 8 8 9 9 10 10 11 11 11 11 12 12 13 14 14 13 13 13 14 14 12 10 10 10 9 9 9 9 9 8 7 7 6 6 6 6
4 5 5 6 6 7 7 8 8 9 9 9 10 11 11 10 12 15 14 13 13 13 13 12 11 12 12 14 15 15 14 12 11 10 9 9 10 8 6 6 6 6 5
4 5 6 6 6 7 7 8 8 9 9 10 10 11 12 12 13 15 15 12 12 11 11 11 9 9 10 10 11 12 13 14 14 12 11 10 9 8 6 6 6 5 6
4 5 6 6 7 8 8 8 8 8 9 10 11 11 11 11 13 15 15 12 11 11 11 11 10 10 9 9 8 9 9 9 10 10 10 10 8 7 6 6 5 4 5
5 6 6 7 8 8 9 9 9 9 9 10 10 10 11 12 13 14 14 9 9 10 10 10 10 10 10 9 8 8 8 8 6 6 7 7 6 6 5 3 3 2 3
6 7 7 7 8 9 9 10 9 9 9 9 10 10 11 11 12 13 13 7 8 8 8 8 9 9 9 9 8 7 8 7 5 4 4 3 4 3 3 4 3 2 2
7 7 7 8 8 9 9 9 9 9 9 9 10 10 10 10 11 11 11 7 7 7 7 7 6 7 7 8 8 7 6 6 4 3 3 2 2 2 2 2 2 2 2
7 7 7 8 7 7 8 9 9 8 9 9 9 10 8 8 9 10 11 10 9 8 7 6 5 6 6 7 6 4 4 3 2 2 1 1 1 1 2 2 2 2 2
7 7 7 8 7 7 8 8 8 7 7 7 8 8 8 7 7 10 11 10 9 7 6 6 7 7 6 5 3 2 2 2 1 1 1 1 1 1 1 1 3 3 4
7 8 7 7 7 7 6 6 7 7 7 7 7 8 8 7 7 6 6 6 6 6 5 5 5 5 4 3 2 2 1 1 1 1 1 0 1 1 1 1 2 2 4
7 7 7 6 7 7 7 7 8 7 7 8 7 7 8 8 8 8 7 6 6 5 5 4 3 2 2 1 1 1 1 0 1 1 1 1 1 1 1 1 1 2 3
7 7 6 6 6 6 7 8 8 9 11 10 10 9 8 9 11 10 9 9 9 7 5 3 2 2 2 1 1 1 1 0 0 1 1 1 1 1 2 2 2 3 4
7 7 6 6 6 6 6 7 8 8 8 9 9 10 10 10 10 10 9 8 7 5 3 2 2 2 1 1 1 0 0 1 0 1 1 1 1 2 2 2 3 4 4
7 7 7 6 6 6 6 6 6 7 8 7 7 9 10 10 9 9 8 6 3 2 2 2 2 1 1 1 0 0 0 0 1 1 1 1 2 2 3 3 3 4 4
7 6 6 6 6 6 6 6 6 7 7 7 6 7 9 8 8 8 6 3 2 2 2 1 1 1 1 1 0 0 0 0 1 1 1 2 2 2 3 3 4 5 4
6 8 8 6 6 6 5 5 5 5 6 6 6 6 6 6 5 5 4 3 2 2 2 1 1 1 0 0 0 0 1 1 1 1 2 2 2 2 3 4 4 4 4
6 7 8 6 5 5 5 5 5 5 5 5 5 6 7 5 4 4 4 4 3 3 2 2 1 1 0 0 0 0 0 1 1 1 2 2 3 3 3 4 4 4 5
6 5 5 5 5 5 5 5 5 5 5 5 5 6 7 5 4 4 4 3 3 3 2 1 1 1 1 1 1 1 1 1 1 1 2 2 3 3 4 4 4 5 5
5 5 5 5 4 5 5 5 4 4 4 4 4 4 4 4 4 3 3 4 3 3 3 1 1 1 1 1 1 1 1 1 1 2 3 3 3 4 4 4 5 5 5
5 5 4 4 4 4 4 4 4 4 4 4 4 4 4 4 4 4 4 3 3 3 3 2 1 1 1 1 1 1 0 1 1 2 3 4 4 5 5 4 5 5 5
4 4 4 4 4 4 4 4 4 4 4 4 4 4 4 4 4 4 4 3 3 3 3 3 2 1 2 2 2 1 2 3 3 4 4 4 5 5 5 5 5 6 5
4 4 4 4 4 4 4 4 4 4 4 4 3 4 3 3 4 4 4 3 3 3 3 2 2 2 2 2 3 3 4 5 6 5 5 5 6 6 6 5 6 6 6
Wind_Direction
236 248 258 264 268 270 271 275 279 280 278 277 278 278 278 278 278 276 275 275 273 273 270 267 265 264 263 259 257 256 257 259 270 283 286 290 289 289 292 290 288 287 284
250 259 266 268 271 274 278 283 284 284 283 280 279 279 279 280 280 278 277 274 271 271 271 268 266 264 260 259 256 257 259 259 267 278 286 290 288 290 292 293 294 293 290
267 267 272 276 278 280 285 289 289 289 287 284 281 280 281 281 280 277 276 274 272 270 270 268 266 262 261 258 257 259 261 262 265 272 283 288 291 291 294 294 297 301 303
290 280 277 280 283 286 289 291 292 292 289 288 284 282 282 282 280 278 277 277 274 272 270 267 265 261 259 259 257 258 261 263 265 269 278 285 290 292 292 295 305 311 315
299 292 288 288 289 290 291 293 294 292 290 289 288 286 284 283 279 281 282 281 279 278 274 270 267 263 258 256 256 258 258 259 264 270 275 281 286 290 291 298 302 312 319
298 297 301 299 296 296 296 296 296 296 295 293 290 290 289 285 286 288 288 284 282 279 278 275 271 265 258 256 257 257 255 256 262 267 272 272 278 283 289 294 300 307 313
305 305 307 307 305 304 302 299 296 298 298 296 295 294 291 292 293 293 293 289 283 281 279 277 274 270 262 260 260 259 258 254 252 258 265 267 272 276 281 287 291 300 303
309 311 313 312 308 307 304 301 301 300 298 297 295 293 294 295 298 300 300 292 284 282 280 276 273 274 267 263 265 267 268 267 261 257 260 267 269 273 271 272 280 301 316
312 312 311 309 307 306 303 301 302 299 298 297 295 295 296 297 298 300 299 292 285 285 283 279 274 273 270 264 264 267 273 278 276 259 260 267 278 278 272 267 263 274 303
307 306 305 304 302 301 300 300 300 297 296 298 297 297 297 297 299 301 299 291 289 289 286 282 274 272 275 268 262 262 267 275 283 292 285 278 276 285 283 261 248 241 269
307 304 304 303 300 299 300 300 301 300 298 298 298 298 298 298 302 302 299 292 289 292 291 290 287 283 278 274 271 265 263 273 278 281 295 307 314 321 327 326 313 255 258
309 305 305 304 303 302 302 302 302 299 297 298 299 301 300 300 303 306 304 299 295 292 291 293 297 302 299 293 284 273 271 269 263 271 284 303 331 340 352 6 29 34 10
310 307 307 307 306 305 303 303 303 298 296 297 298 299 303 303 303 306 307 305 302 293 292 301 305 306 307 303 299 286 273 253 228 224 237 273 317 347 24 46 55 61 58
308 310 309 308 308 308 304 300 300 297 296 296 298 299 303 304 304 303 303 307 303 296 295 302 310 314 306 302 310 314 277 222 196 193 190 102 59 51 53 72 81 85 76
307 308 308 305 303 303 301 298 295 290 290 296 295 296 300 301 305 308 301 301 302 298 303 304 308 314 318 324 335 348 359 160 149 147 128 108 82 72 60 67 83 90 91
304 305 304 303 303 301 303 305 301 294 302 301 301 301 300 302 307 306 305 305 304 299 299 293 302 312 318 328 347 11 17 58 133 130 138 141 134 112 93 83 88 103 103
298 299 299 299 299 300 301 303 308 312 310 308 310 312 311 314 316 314 312 313 310 305 296 289 302 311 320 333 336 7 351 340 103 129 132 127 118 113 115 111 106 107 104
298 296 295 294 294 294 296 298 301 305 311 315 320 322 322 325 326 323 319 319 321 320 299 294 303 313 317 315 326 23 56 40 100 122 129 123 119 120 120 118 117 114 111
299 298 297 295 293 293 295 297 299 301 304 309 316 324 330 331 333 337 338 330 315 311 300 293 300 310 333 346 351 149 137 119 126 131 126 115 114 119 121 119 118 117 113
300 301 303 298 298 299 299 299 301 302 307 312 316 321 328 333 337 342 347 339 325 317 314 310 312 317 312 11 58 119 117 117 116 123 121 117 112 113 120 122 126 125 114
301 304 305 300 297 298 299 300 302 303 306 311 314 322 329 327 327 331 335 335 326 319 317 320 329 334 335 289 188 154 137 128 122 119 121 119 115 111 113 119 121 118 114
298 299 302 299 299 302 305 304 305 306 309 312 317 324 334 332 328 328 328 329 328 323 316 309 310 315 300 256 214 189 167 155 144 132 121 119 118 116 114 115 117 117 117
298 300 302 302 303 307 308 307 308 308 310 313 317 323 328 331 330 328 328 327 325 324 321 319 313 327 343 332 300 223 187 177 179 158 137 126 121 121 122 121 121 120 117
300 300 300 302 305 306 307 308 310 310 311 314 318 323 326 328 331 329 327 325 326 329 330 330 329 341 351 349 354 6 93 122 123 132 134 132 126 124 122 120 118 118 116
302 301 300 299 300 303 307 310 312 313 315 317 320 322 324 327 331 333 332 330 332 337 340 337 344 5 22 16 25 69 92 97 104 113 118 120 121 120 120 118 118 116 113
305 304 300 298 298 301 303 305 308 311 313 317 318 319 321 324 328 332 336 338 338 340 342 346 6 19 27 43 66 86 94 102 103 106 113 120 122 123 121 119 121 118 116
Height
1464 1464 1464 1463 1463 1461 1460 1458 1457 1455 1453 1451 1449 1447 1445 1442 1441 1438 1436 1434 1431 1429 1427 1425 1423 1421 1419 1418 1416 1415 1413 1411 1406 1402 1401 1399 1397 1394 1390 1388 1385 1382 1379
1460 1460 1459 1459 1458 1456 1455 1453 1451 1449 1447 1445 1443 1440 1438 1436 1434 1431 1429 1427 1424 1422 1420 1418 1416 1414 1412 1410 1409 1408 1407 1405 1403 1398 1395 1393 1391 1389 1386 1382 1379 1377 1374
1456 1455 1455 1454 1453 1451 1449 1448 1446 1443 1441 1439 1437 1434 1431 1429 1427 1424 1422 1420 1417 1415 1412 1410 1408 1407 1405 1404 1402 1402 1400 1399 1398 1395 1390 1389 1386 1384 1381 1378 1375 1373 1370
1452 1451 1450 1449 1448 1446 1445 1442 1440 1438 1435 1432 1430 1428 1425 1423 1420 1417 1415 1412 1410 1407 1405 1403 1401 1400 1398 1397 1396 1395 1395 1393 1392 1390 1387 1384 1382 1380 1378 1375 1372 1369 1367
1448 1447 1446 1444 1443 1441 1439 1437 1435 1432 1430 1427 1424 1421 1419 1416 1413 1411 1408 1406 1403 1400 1398 1396 1394 1393 1391 1391 1390 1390 1389 1388 1387 1385 1383 1381 1379 1377 1375 1372 1370 1367 1364
1444 1443 1441 1440 1438 1436 1434 1432 1429 1427 1424 1421 1418 1415 1412 1410 1407 1405 1402 1399 1396 1394 1391 1389 1387 1386 1385 1384 1384 1384 1384 1383 1381 1380 1378 1377 1375 1373 1372 1370 1368 1365 1362
1440 1439 1437 1435 1433 1431 1429 1427 1424 1422 1419 1416 1413 1410 1406 1403 1401 1398 1396 1393 1390 1387 1385 1383 1381 1380 1380 1379 1378 1378 1378 1377 1377 1376 1374 1372 1371 1370 1369 1367 1366 1364 1362
1436 1435 1433 1431 1429 1427 1425 1422 1420 1417 1414 1411 1407 1404 1401 1398 1395 1392 1389 1387 1384 1381 1379 1378 1376 1375 1374 1373 1373 1372 1371 1371 1371 1370 1369 1368 1367 1366 1366 1365 1364 1362 1360
1433 1431 1429 1427 1425 1422 1420 1417 1415 1412 1409 1406 1403 1400 1396 1393 1390 1388 1385 1382 1379 1376 1374 1373 1371 1370 1369 1369 1368 1367 1366 1365 1365 1364 1364 1363 1363 1363 1362 1362 1361 1360 1358
1429 1427 1425 1423 1421 1418 1416 1413 1410 1407 1404 1401 1398 1395 1392 1388 1386 1383 1381 1378 1375 1372 1370 1368 1367 1366 1365 1364 1364 1363 1361 1360 1360 1359 1359 1358 1358 1359 1359 1359 1359 1359 1357
1425 1423 1421 1419 1417 1414 1411 1408 1406 1403 1400 1397 1394 1391 1388 1385 1381 1379 1377 1374 1372 1369 1367 1365 1363 1362 1361 1360 1359 1358 1357 1357 1357 1356 1355 1355 1356 1356 1356 1357 1357 1358 1357
1421 1419 1417 1415 1412 1410 1407 1404 1401 1398 1395 1392 1389 1386 1383 1380 1378 1375 1372 1370 1368 1366 1363 1362 1360 1358 1357 1356 1355 1354 1354 1354 1354 1353 1353 1353 1354 1354 1355 1355 1356 1356 1356
1417 1415 1413 1410 1408 1405 1403 1400 1397 1394 1391 1388 1385 1382 1379 1376 1374 1371 1368 1366 1364 1362 1360 1358 1357 1355 1353 1352 1352 1351 1351 1351 1351 1351 1351 1352 1353 1354 1354 1354 1354 1355 1355
1413 1411 1409 1406 1404 1401 1399 1396 1393 1390 1388 1385 1382 1379 1376 1373 1370 1367 1365 1363 1361 1359 1357 1355 1354 1352 1351 1350 1349 1349 1349 1350 1350 1350 1351 1352 1352 1353 1353 1354 1354 1355 1355
1410 1407 1405 1402 1400 1397 1395 1392 1390 1387 1385 1382 1379 1376 1373 1369 1366 1364 1362 1360 1358 1357 1355 1353 1351 1349 1348 1348 1348 1348 1348 1349 1349 1350 1351 1352 1352 1353 1354 1354 1355 1356 1356
1406 1403 1401 1399 1396 1394 1391 1388 1385 1384 1381 1378 1376 1373 1369 1367 1363 1360 1359 1357 1355 1354 1353 1351 1349 1348 1347 1347 1347 1347 1348 1348 1349 1350 1351 1352 1352 1353 1354 1355 1356 1356 1357
1402 1400 1397 1395 1392 1390 1387 1384 1381 1379 1377 1374 1371 1369 1366 1363 1360 1357 1355 1354 1353 1352 1351 1349 1348 1348 1347 1347 1347 1347 1348 1348 1349 1350 1351 1352 1353 1353 1354 1355 1356 1357 1358
1398 1396 1393 1391 1389 1386 1384 1381 1378 1375 1372 1370 1368 1365 1363 1360 1357 1355 1353 1352 1350 1350 1349 1349 1348 1347 1347 1347 1347 1347 1348 1348 1349 1350 1351 1352 1353 1354 1355 1356 1357 1359 1360
1394 1392 1389 1387 1385 1383 1380 1378 1375 1373 1370 1367 1365 1362 1360 1357 1355 1353 1351 1350 1349 1349 1349 1348 1348 1348 1347 1347 1347 1348 1348 1349 1350 1351 1352 1353 1354 1355 1356 1357 1358 1360 1361
1390 1388 1386 1383 1381 1379 1377 1375 1372 1370 1368 1365 1362 1360 1358 1355 1353 1351 1350 1350 1349 1348 1348 1348 1347 1347 1347 1347 1348 1348 1349 1349 1350 1351 1352 1353 1354 1355 1357 1358 1359 1361 1362
1385 1383 1382 1379 1377 1376 1374 1372 1370 1368 1365 1363 1361 1359 1357 1355 1353 1351 1350 1349 1349 1348 1348 1347 1347 1347 1347 1347 1348 1348 1349 1350 1351 1352 1353 1354 1355 1356 1358 1359 1361 1362 1364
1382 1380 1378 1376 1374 1373 1371 1369 1367 1365 1363 1361 1359 1358 1356 1354 1352 1351 1350 1349 1348 1348 1347 1347 1347 1347 1347 1348 1348 1349 1349 1350 1351 1353 1354 1355 1356 1358 1359 1361 1362 1364 1365
1378 1376 1375 1373 1371 1370 1368 1367 1365 1363 1362 1360 1358 1356 1355 1353 1352 1350 1349 1348 1348 1347 1347 1347 1346 1347 1347 1348 1349 1349 1350 1351 1352 1354 1355 1356 1357 1359 1360 1362 1363 1365 1366
1375 1373 1372 1370 1369 1367 1366 1364 1363 1362 1360 1359 1357 1356 1354 1353 1351 1350 1349 1348 1348 1347 1347 1347 1347 1347 1348 1348 1349 1350 1351 1352 1353 1355 1356 1357 1359 1360 1362 1363 1365 1366 1368
1372 1371 1369 1368 1366 1365 1364 1363 1361 1360 1359 1357 1356 1355 1354 1352 1351 1350 1349 1348 1347 1347 1347 1347 1347 1348 1348 1349 1350 1350 1352 1353 1355 1356 1357 1359 1360 1362 1364 1365 1367 1368 1370
1370 1368 1367 1366 1364 1363 1362 1361 1360 1359 1357 1356 1355 1354 1353 1352 1351 1350 1349 1348 1347 1347 1347 1348 1348 1349 1349 1350 1351 1352 1353 1354 1356 1357 1359 1360 1362 1363 1365 1367 1369 1370 1372